Flag for Ukraine Weather past 2 weeks in Luhansk, Ukraine

Now
59 °F

Clear.


Feels Like: 56 °F
Forecast: 41 / 62 °F
Wind: 15 mph from East

Location: Rostov-Na-Donu

Current Time: Sep 17, 2014 at 9:22:01 PM

Latest Report: Sep 17, 2014 at 8:30 PM


Visibility: 10 mi

Pressure: 30.15 "Hg

Humidity: 45%

Dew point: 37 °F

Location of LuhanskLocation

Historic Weather in Luhansk — Graph

°F

Luhansk temperature yesterday

Maximum temperature yesterday: 73 °F (at 4:30 PM)
Minimum temperature yesterday: 54 °F (at 6:30 AM)
Average temperature yesterday: 63 °F

Past Weeks' High & Low Weather Summary

 TemperatureHumidityPressure
High88 °F (Sep 3, 3:00 PM)100% (Sep 8, 10:30 AM)30.15 "Hg (Sep 8, 10:30 AM)
Low52 °F (Sep 17, 5:30 AM)17% (Sep 4, 3:30 PM)29.83 "Hg (Sep 7, 6:30 PM)
Average68 °F54%29.98 "Hg
* Reported Sep 2 8:00 PM — Sep 17 8:00 PM, Luhansk, Weather by CustomWeather, © 2014

Note: Actual official high and low records may vary slightly from our data, if they occured in-between our weather recording intervals... More about our weather records

Advertising

Luhansk weather history for previous 24 hours

 ConditionsComfort  
Time TempWeatherWind HumidityBarometerVisibility
8:00 PM
Sep 17
59 °FClear.13 mph45%30.15 "Hg10 mi
7:30 PM61 °FClear.15 mph42%30.15 "Hg10 mi
7:00 PM61 °FSunny.13 mph42%30.15 "Hg10 mi
6:30 PM63 °FSunny.13 mph39%30.15 "Hg10 mi
6:00 PM64 °FSunny.15 mph40%30.15 "Hg10 mi
5:30 PM66 °FSunny.17 mph35%30.12 "Hg10 mi
5:00 PM66 °FSunny.17 mph37%30.12 "Hg10 mi
4:30 PM68 °FSunny.17 mph38%30.12 "Hg10 mi
4:00 PM68 °FSunny.17 mph38%30.12 "Hg10 mi
3:30 PM70 °FSunny.17 mph35%30.12 "Hg10 mi
3:00 PM70 °FSunny.17 mph35%30.09 "Hg10 mi
2:30 PM70 °FSunny.17 mph38%30.12 "Hg10 mi
2:00 PM70 °FSunny.20 mph35%30.12 "Hg10 mi
1:30 PM70 °FSunny.20 mph38%30.12 "Hg10 mi
1:00 PM70 °FSunny.17 mph38%30.12 "Hg10 mi
12:30 PM68 °FSunny.20 mph40%30.12 "Hg10 mi
12:00 PM68 °FSunny.20 mph43%30.12 "Hg10 mi
11:30 AM68 °FPassing clouds.17 mph43%30.09 "HgN/A
11:00 AM66 °FSunny.20 mph46%30.09 "Hg10 mi
10:30 AM64 °FSunny.17 mph49%30.12 "Hg10 mi
10:00 AM64 °FSunny.17 mph49%30.12 "Hg10 mi
9:30 AM63 °FSunny.20 mph52%30.09 "Hg10 mi
9:00 AM61 °FSunny.17 mph55%30.09 "Hg10 mi
8:30 AM61 °FSunny.17 mph55%30.09 "Hg10 mi
8:00 AM57 °FSunny.15 mph63%30.09 "Hg10 mi
7:30 AM55 °FSunny.13 mph67%30.09 "Hg10 mi
7:00 AM55 °FSunny.10 mph67%30.09 "Hg10 mi
6:30 AM54 °FClear.10 mph72%30.09 "Hg10 mi
6:00 AM54 °FClear.10 mph72%30.07 "Hg10 mi
5:30 AM52 °FClear.10 mph77%30.07 "Hg10 mi
5:00 AM54 °FClear.10 mph72%30.07 "Hg10 mi
4:30 AM54 °FClear.10 mph72%30.07 "Hg10 mi
4:00 AM55 °FClear.10 mph72%30.04 "Hg10 mi
3:30 AM55 °FClear.13 mph72%30.04 "Hg10 mi
3:00 AM55 °FClear.13 mph72%30.04 "Hg10 mi
2:30 AM55 °FClear.10 mph77%30.04 "Hg10 mi
2:00 AM57 °FClear.10 mph72%30.04 "Hg10 mi
1:30 AM55 °FPassing clouds.8 mph77%30.04 "HgN/A
1:00 AM57 °FPassing clouds.8 mph77%30.04 "HgN/A
12:30 AM57 °FClear.10 mph77%30.04 "Hg10 mi
12:00 AM57 °FPassing clouds.8 mph77%30.04 "HgN/A
11:30 PM
Sep 16
59 °FClear.10 mph72%30.04 "Hg10 mi
11:00 PM59 °FClear.10 mph72%30.04 "Hg10 mi
10:30 PM59 °FClear.13 mph72%30.04 "Hg10 mi
10:00 PM61 °FClear.15 mph68%30.04 "Hg10 mi
9:30 PM63 °FClear.15 mph64%30.04 "Hg10 mi
9:00 PM63 °FClear.13 mph64%30.04 "Hg10 mi
Weather by CustomWeather, © 2014

See weather overviewHow to use our weather pages